When you browse on this site, cookies collect data to enhance your experience and personalize the content and advertising you see.
Visit our Privacy Policy to learn more. By continuing to use the site, you agree to this use of cookies and data.
  • In United Kingdom
  • List of Countries
  • For 7 days
  • Water Temperature
  • Weather Map
  • Weather Widgets
  • user-avatar
    Login

    Hourly Weather Aylesbury

    Today, 28 May, Thursday

    Time Temperature Precipitation Wind Pressure Humidity
    00:00 +11°C° 0 mm 3 mps 769 mmHg 89%
    01:00 +11°C° 0 mm 3 mps 769 mmHg 88%
    02:00 +10°C° 0 mm 3 mps 769 mmHg 88%
    03:00 +9°C° 0 mm 2 mps 768 mmHg 87%
    04:00 +10°C° 0 mm 3 mps 768 mmHg 85%
    05:00 +10°C° 0 mm 3 mps 768 mmHg 84%
    06:00 +11°C° 0 mm 3 mps 768 mmHg 82%
    07:00 +12°C° 0 mm 3 mps 768 mmHg 75%
    08:00 +14°C° 0 mm 3 mps 769 mmHg 68%
    09:00 +17°C° 0 mm 3 mps 769 mmHg 61%
    10:00 +18°C° 0 mm 3 mps 768 mmHg 58%
    11:00 +19°C° 0 mm 3 mps 768 mmHg 54%
    12:00 +20°C° 0 mm 3 mps 768 mmHg 51%
    13:00 +20°C° 0 mm 3 mps 767 mmHg 52%
    14:00 +20°C° 0 mm 3 mps 767 mmHg 53%
    15:00 +20°C° 0 mm 4 mps 766 mmHg 54%
    16:00 +19°C° 0 mm 4 mps 766 mmHg 58%
    17:00 +18°C° 0 mm 4 mps 766 mmHg 62%
    18:00 +17°C° 0 mm 4 mps 766 mmHg 66%
    19:00 +14°C° 0 mm 3 mps 766 mmHg 66%
    20:00 +13°C° 0 mm 3 mps 766 mmHg 66%
    21:00 +11°C° 0 mm 3 mps 766 mmHg 66%
    22:00 +10°C° 0 mm 3 mps 766 mmHg 67%
    23:00 +9°C° 0 mm 3 mps 765 mmHg 68%

    Tomorrow, 29 May, Friday

    Time Temperature Precipitation Wind Pressure Humidity
    00:00 +9°C° 0 mm 2 mps 765 mmHg 69%
    01:00 +8°C° 0 mm 2 mps 765 mmHg 72%
    02:00 +8°C° 0 mm 2 mps 765 mmHg 74%
    03:00 +8°C° 0 mm 2 mps 765 mmHg 76%
    04:00 +9°C° 0 mm 2 mps 765 mmHg 77%
    05:00 +10°C° 0 mm 2 mps 764 mmHg 79%
    06:00 +12°C° 0 mm 2 mps 764 mmHg 80%
    07:00 +13°C° 0 mm 3 mps 764 mmHg 74%
    08:00 +14°C° 0 mm 3 mps 764 mmHg 68%
    09:00 +17°C° 0 mm 3 mps 764 mmHg 62%
    10:00 +18°C° 0 mm 4 mps 764 mmHg 61%
    11:00 +19°C° 0 mm 4 mps 764 mmHg 59%
    12:00 +20°C° 0 mm 4 mps 763 mmHg 58%
    13:00 +20°C° 0 mm 4 mps 763 mmHg 58%
    14:00 +20°C° 0 mm 4 mps 763 mmHg 59%
    15:00 +20°C° 0 mm 4 mps 762 mmHg 59%
    16:00 +19°C° 0 mm 4 mps 762 mmHg 62%
    17:00 +18°C° 0 mm 4 mps 762 mmHg 65%
    18:00 +17°C° 0 mm 3 mps 761 mmHg 68%
    19:00 +14°C° 0 mm 3 mps 761 mmHg 68%
    20:00 +12°C° 0 mm 3 mps 761 mmHg 69%
    21:00 +10°C° 0 mm 3 mps 762 mmHg 70%
    22:00 +10°C° 0 mm 3 mps 762 mmHg 72%
    23:00 +9°C° 0 mm 3 mps 762 mmHg 74%

    Day after tomorrow, 30 May, Saturday

    Time Temperature Precipitation Wind Pressure Humidity
    00:00 +8°C° 0 mm 3 mps 762 mmHg 76%
    01:00 +7°C° 0 mm 3 mps 761 mmHg 80%
    02:00 +7°C° 0 mm 3 mps 761 mmHg 83%
    03:00 +6°C° 0 mm 2 mps 761 mmHg 86%
    04:00 +7°C° 0 mm 3 mps 761 mmHg 85%
    05:00 +9°C° 0 mm 3 mps 761 mmHg 84%
    06:00 +10°C° 0 mm 3 mps 761 mmHg 83%
    07:00 +12°C° 0 mm 3 mps 761 mmHg 78%
    08:00 +14°C° 0 mm 3 mps 761 mmHg 74%
    09:00 +17°C° 0 mm 4 mps 761 mmHg 70%
    10:00 +18°C° 0 mm 4 mps 761 mmHg 66%
    11:00 +19°C° 0 mm 4 mps 761 mmHg 63%
    12:00 +20°C° 0 mm 4 mps 761 mmHg 59%
    13:00 +21°C° 0 mm 4 mps 760 mmHg 58%
    14:00 +21°C° 0 mm 4 mps 760 mmHg 57%
    15:00 +21°C° 0 mm 4 mps 760 mmHg 57%
    16:00 +20°C° 0 mm 4 mps 760 mmHg 60%
    17:00 +19°C° 0 mm 4 mps 759 mmHg 64%
    18:00 +18°C° 0 mm 4 mps 759 mmHg 67%
    19:00 +15°C° 0 mm 4 mps 760 mmHg 71%
    20:00 +13°C° 0 mm 4 mps 760 mmHg 75%
    21:00 +12°C° 0 mm 3 mps 760 mmHg 79%
    22:00 +11°C° 0 mm 3 mps 760 mmHg 83%
    23:00 +10°C° 0 mm 3 mps 760 mmHg 87%

    31 May, Sunday

    Time Temperature Precipitation Wind Pressure Humidity
    00:00 +9°C° 0 mm 3 mps 760 mmHg 91%
    01:00 +9°C° 0 mm 3 mps 760 mmHg 91%
    02:00 +8°C° 0 mm 3 mps 760 mmHg 92%
    03:00 +8°C° 0 mm 3 mps 760 mmHg 93%
    04:00 +9°C° 0 mm 3 mps 760 mmHg 91%
    05:00 +10°C° 0 mm 3 mps 760 mmHg 90%
    06:00 +11°C° 0 mm 3 mps 760 mmHg 88%
    07:00 +13°C° 0 mm 3 mps 760 mmHg 82%
    08:00 +15°C° 0 mm 4 mps 760 mmHg 75%
    09:00 +18°C° 0 mm 4 mps 761 mmHg 68%
    10:00 +19°C° 0.1 mm 4 mps 761 mmHg 65%
    11:00 +20°C° 0.1 mm 4 mps 760 mmHg 62%
    12:00 +21°C° 0.1 mm 4 mps 760 mmHg 59%
    13:00 +21°C° 0.1 mm 4 mps 760 mmHg 59%
    14:00 +21°C° 0.1 mm 4 mps 760 mmHg 59%
    15:00 +21°C° 0.1 mm 4 mps 760 mmHg 60%
    16:00 +20°C° 0 mm 4 mps 760 mmHg 63%
    17:00 +19°C° 0 mm 4 mps 760 mmHg 65%
    18:00 +18°C° 0 mm 4 mps 760 mmHg 68%
    19:00 +15°C° 0 mm 4 mps 760 mmHg 72%
    20:00 +13°C° 0 mm 3 mps 760 mmHg 76%
    21:00 +11°C° 0 mm 3 mps 760 mmHg 80%
    22:00 +10°C° 0 mm 3 mps 760 mmHg 84%
    23:00 +9°C° 0 mm 3 mps 760 mmHg 87%

    1 June, Monday

    Time Temperature Precipitation Wind Pressure Humidity
    00:00 +8°C° 0 mm 2 mps 760 mmHg 90%
    01:00 +8°C° 0 mm 2 mps 760 mmHg 91%
    02:00 +7°C° 0 mm 3 mps 760 mmHg 92%
    03:00 +7°C° 0 mm 3 mps 760 mmHg 93%
    04:00 +8°C° 0 mm 3 mps 760 mmHg 91%
    05:00 +9°C° 0 mm 3 mps 759 mmHg 89%
    06:00 +10°C° 0 mm 3 mps 759 mmHg 87%
    07:00 +12°C° 0 mm 3 mps 759 mmHg 82%
    08:00 +16°C° 0 mm 3 mps 759 mmHg 77%
    09:00 +18°C° 0 mm 3 mps 759 mmHg 72%
    10:00 +19°C° 0 mm 3 mps 759 mmHg 68%
    11:00 +20°C° 0 mm 3 mps 759 mmHg 64%
    12:00 +21°C° 0 mm 3 mps 758 mmHg 61%
    13:00 +21°C° 0 mm 3 mps 758 mmHg 61%
    14:00 +21°C° 0 mm 3 mps 758 mmHg 61%
    15:00 +21°C° 0 mm 2 mps 757 mmHg 62%
    16:00 +21°C° 0 mm 2 mps 757 mmHg 66%
    17:00 +20°C° 0 mm 2 mps 757 mmHg 70%
    18:00 +20°C° 0 mm 2 mps 756 mmHg 74%
    19:00 +18°C° 0 mm 2 mps 756 mmHg 77%
    20:00 +17°C° 0 mm 2 mps 756 mmHg 81%
    21:00 +15°C° 0 mm 2 mps 756 mmHg 84%
    22:00 +15°C° 0 mm 2 mps 756 mmHg 86%
    23:00 +14°C° 0 mm 2 mps 756 mmHg 87%

    2 June, Tuesday

    Time Temperature Precipitation Wind Pressure Humidity
    00:00 +13°C° 0 mm 1 mps 755 mmHg 88%
    01:00 +12°C° 0 mm 1 mps 755 mmHg 88%
    02:00 +12°C° 0 mm 1 mps 754 mmHg 87%
    03:00 +12°C° 0 mm 1 mps 754 mmHg 87%
    04:00 +13°C° 0 mm 1 mps 754 mmHg 84%
    05:00 +14°C° 0 mm 1 mps 754 mmHg 82%
    06:00 +13°C° 0 mm 0 mps 753 mmHg 80%
    07:00 +15°C° 0 mm 0 mps 753 mmHg 77%
    08:00 +16°C° 0 mm 0 mps 753 mmHg 74%
    09:00 +17°C° 0 mm 0 mps 753 mmHg 72%
    10:00 +20°C° 0.1 mm 1 mps 752 mmHg 69%
    11:00 +21°C° 0.1 mm 1 mps 752 mmHg 66%
    12:00 +22°C° 0.1 mm 1 mps 752 mmHg 63%
    13:00 +21°C° 0.7 mm 2 mps 751 mmHg 66%
    14:00 +21°C° 0.7 mm 2 mps 751 mmHg 68%
    15:00 +20°C° 0.7 mm 2 mps 750 mmHg 71%
    16:00 +19°C° 0.6 mm 3 mps 750 mmHg 78%
    17:00 +17°C° 0.6 mm 3 mps 750 mmHg 85%
    18:00 +14°C° 0.6 mm 4 mps 750 mmHg 92%
    19:00 +14°C° 0.8 mm 4 mps 750 mmHg 93%
    20:00 +13°C° 0.8 mm 5 mps 750 mmHg 94%
    21:00 +13°C° 0.8 mm 5 mps 750 mmHg 95%
    22:00 +13°C° 0.1 mm 5 mps 749 mmHg 94%
    23:00 +12°C° 0.1 mm 5 mps 749 mmHg 93%
    Show more